Location: M.A.R.S.Observatory
(35.4031°N, 81.5481°W)
Time: 10:47:07
(UTC-04:00)

Daily predictions for brighter satellites

Satellite Brightness Start Highest point End
(mag) Time Altitude Azimuth Time Altitude Azimuth Time Altitude Azimuth
Cosmos 1825 Rocket 3.7 19:34:48 10° N 19:39:14 83° W 19:43:41 10° S
NOAA 12 4.3 19:35:30 10° SSE 19:40:33 52° ENE 19:45:39 10° N
Cosmos 482 Debris 4.2 19:38:34 10° NW 19:42:50 64° SW 19:45:23 10° SE
Meteor 1-24 Rocket 4.4 19:37:39 10° N 19:42:59 34° ENE 19:48:07 10° SE
Milstar 3 Cent rocket 3.4 19:40:06 10° SW 19:45:47 29° S 19:49:57 10° ESE
Cosmos 1656 Rocket 3.8 19:41:47 10° NNW 19:47:20 57° ENE 19:52:45 10° SE
METEOR-M 4.2 19:43:59 10° SSE 19:49:20 86° WSW 19:54:43 10° NNW
FENGYUN 3A 3.8 19:45:05 10° SSE 19:50:17 55° ENE 19:55:32 10° N
USA 229 DEB 4.4 19:46:59 10° NW 19:54:06 62° WSW 20:01:19 10° SSE
USA 229 4.4 19:47:05 10° NW 19:54:11 63° WSW 20:01:24 10° SSE
NOSS 3-1 (A) 4.2 19:51:05 10° NNW 19:58:43 58° NE 20:07:03 10° SE
Cosmos 841 Rocket 4.0 19:53:47 10° SSW 19:58:52 65° WNW 20:04:00 10° N
CZ-4 R/B 4.3 19:56:21 10° SSW 19:59:36 22° W 20:02:56 10° NW
H-2A R/B 3.5 19:56:40 10° SE 19:59:57 30° ENE 20:03:16 10° N
Cosmos 1544 3.5 19:56:56 10° SSE 20:00:16 37° E 20:03:38 10° NNE
SJ-6B 3.7 19:58:08 10° SE 20:01:36 29° ENE 20:05:02 10° NNE
BREEZE-M (TANK) 4.1 19:50:15 10° NW 20:06:00 68° NNE 20:09:26 15° ESE
NOSS 3-1 (C) 4.1 19:58:24 10° NNW 20:06:15 83° ENE 20:14:48 10° SSE
Cosmos 1953 3.8 20:04:01 10° SE 20:06:42 17° E 20:09:24 10° NE
Cosmos 540 Rocket 3.4 20:02:55 10° S 20:07:58 72° ESE 20:13:04 10° NNE
USA 81 4.1 20:02:56 10° N 20:08:15 89° W 20:13:31 10° S
COSMO-SKYMED 1 4.5 20:04:48 10° N 20:08:44 34° WNW 20:12:38 10° SW
Cosmos 292 Rocket 4.4 20:08:56 10° SSE 20:13:15 33° E 20:17:36 10° NE
SL-27 R/B 2.9 20:10:20 10° S 20:13:40 38° ESE 20:17:04 10° NNE
Cosmos 1378 4.2 20:11:24 10° NNW 20:15:04 50° W 20:18:43 10° S
COSMOS 2406 3.6 20:14:35 10° SSW 20:20:14 70° WNW 20:25:59 10° NNE
HJ-1C 3.6 20:19:34 14° SE 20:22:10 45° ENE 20:25:23 10° N
Cosmos 1707 4.5 20:19:07 10° NNW 20:22:44 36° W 20:26:19 10° SSW
SJ 16-02 2.2 20:19:39 10° N 20:23:32 30° ENE 20:24:56 25° ESE
In-Cosmos 22 4.2 20:18:10 10° N 20:23:52 65° E 20:29:34 10° SSE
Meteor 1-22 Rocket 4.3 20:18:39 10° S 20:24:23 83° W 20:29:54 10° N
Cosmos 1356 Rocket 3.7 20:22:17 10° NNW 20:26:35 73° W 20:30:52 10° S
Cosmos 1766 3.5 20:22:57 10° SSW 20:26:52 72° W 20:30:46 10° N
Cosmos 1674 4.3 20:24:04 10° NNE 20:25:44 17° NE 20:25:44 17° NE
OAO 3 Copernicus 4.3 20:23:24 10° W 20:28:28 84° S 20:31:15 27° E
Cosmos 1833 Rocket 4.5 20:26:46 10° SSE 20:27:35 13° SE 20:27:35 13° SE
Resurs 1-3 4.4 20:33:13 29° E 20:33:49 30° ENE 20:37:40 10° N
FengYun 1-2 T 4.2 20:32:15 10° SSE 20:37:52 88° W 20:43:26 10° NNW
ALOS 3.6 20:33:37 10° S 20:38:01 42° W 20:42:27 10° NNW
ISS -2.3 20:35:21 10° WSW 20:38:23 35° NW 20:40:34 16° NNE
Cosmos 2074 Rocket 4.5 20:32:44 10° SSW 20:38:52 62° W 20:45:01 10° N
Cosmos 2154 Rocket 3.9 20:33:08 10° S 20:39:16 66° E 20:45:28 10° NNE
MOS 1-B Rocket 4.3 20:37:06 23° SE 20:40:16 40° ENE 20:45:31 10° N
BREEZE-M DEB (TANK) 4.2 20:30:45 10° WSW 20:45:06 64° NNW 20:48:26 19° NE
Meteor 1-21 Rocket 4.5 20:44:48 10° N 20:50:14 45° ENE 20:51:42 37° ESE
Spot 2 Rocket 3.7 20:50:59 41° ESE 20:52:02 47° ENE 20:56:50 10° N
Cosmos 1758 3.1 20:48:09 10° S 20:52:10 83° E 20:56:11 10° N
Cosmos 1812 Rocket 4.0 20:49:34 10° SSW 20:53:59 65° W 20:58:26 10° N
Cosmos 2341 Rocket 3.9 20:48:25 10° S 20:54:30 61° E 21:00:37 10° NNE
Cosmos 2082 Rocket 3.7 20:51:41 10° S 21:03:55 - NNE 20:53:28 19° SSE
Cosmos 1805 4.0 20:53:20 10° SSW 20:57:08 52° W 21:00:57 10° N
USA 234 4.4 20:52:51 10° SSE 20:58:50 38° SW 21:04:52 10° WNW
ATLAS 5 CENTAUR R/B 2.8 20:55:16 10° S 20:57:40 28° SSE 20:57:40 28° SSE
Resurs 01 Rocket 1.5 21:01:55 63° ESE 21:02:25 71° ENE 21:06:50 10° N
CZ-2D R/B 3.2 21:04:04 69° SSW 21:04:26 79° WSW 21:08:16 10° NNW
GP-B 3.1 21:01:25 10° N 21:05:52 81° W 21:08:55 20° S
Cosmos 2278 4.3 21:02:12 10° N 21:07:09 38° NE 21:07:09 38° NE
ATLAS CENTAUR R/B 3.6 20:58:01 10° NW 21:08:09 50° WSW 21:10:26 26° S
Nadezhda 3 Rocket 4.0 21:05:59 10° N 21:12:17 84° W 21:17:42 14° S
Cosmos 1656 4.5 21:11:54 10° N 21:16:08 35° NE 21:16:08 35° NE
Yuri Rocket 4.4 21:17:00 10° WSW 21:20:14 28° SSW 21:20:14 28° SSW
Cosmos 2285 Rocket 3.9 21:15:11 10° SSW 21:21:36 87° ESE 21:28:04 10° NNE
Cosmos 1809 Rocket 4.3 21:18:22 21° S 21:22:36 76° E 21:28:43 10° N
Envisat 2.9 21:24:15 80° S 21:24:32 87° WSW 21:29:39 10° NNW
Cosmos 1697 Rocket 4.0 21:19:46 10° N 21:22:57 25° NNE 21:22:57 25° NNE
Cosmos 1295 Rocket 4.4 21:19:40 10° S 21:25:46 84° W 21:31:53 10° N
Cosmos 1980 Rocket 4.2 21:23:01 10° NNE 21:24:38 15° NNE 21:24:38 15° NNE
Okean 3 Rocket 4.5 21:26:16 10° N 21:29:16 42° NNW 21:29:16 42° NNW
Gbstr 26 Del rocket 3.7 21:27:01 10° SW 21:31:04 62° SW 21:31:04 62° SW
SL-8 Rocket 3.8 21:38:36 88° ESE 21:38:37 88° E 21:44:47 10° N
Meteor 2-15 4.5 21:34:26 10° N 21:39:39 65° NNE 21:39:39 65° NNE
ATLAS 2AS CENTAUR R/B 3.1 21:32:54 10° NNW 21:40:36 53° NE 21:40:36 53° NE
Cosmos 1953 4.4 21:39:28 10° SW 21:42:53 26° WNW 21:46:20 10° NNW
NOSS 3-3 (A) 4.2 21:50:16 10° SW 22:05:30 - NNE 21:55:46 66° W
NOSS 3-3 (C) 4.2 21:50:21 10° SW 21:55:39 64° W 21:55:39 64° W
SJ 16-02 3.7 21:58:48 10° NW 22:01:52 19° W 22:02:00 19° W
Milstar 3 Cent rocket 4.5 22:18:33 10° WSW 22:19:08 13° WSW 22:19:08 13° WSW
Centaur D AC-29 4.1 22:22:43 10° WSW 22:24:06 14° WSW 22:24:06 14° WSW
FALCON 9 R/B 4.4 22:35:06 10° W 22:36:10 20° W 22:36:10 20° W
